Theta_e
303 303 303 303 303 303 303 303 303 302 302 302 303 303 302 302 303 304 306 307 309 311 311 311 310 311 311 310 310 310 309 308 308 307 307 309 309 309 309 309 310 310 309 308 309 309 308 307 309 309 308 312 315 317 317 318 319 317 315 314 314 314 314 314 316 316 316 317 316 316 319 323 332 342 343 343 346 347 347 346 345 342 340 343 347 348 349 350
303 303 303 303 303 303 303 303 303 303 303 303 303 303 303 303 302 303 304 305 308 310 311 311 310 311 311 311 311 310 310 309 308 307 309 311 309 309 309 308 309 311 311 308 308 308 308 308 308 308 310 315 317 317 317 318 318 316 316 315 314 314 314 314 316 316 315 316 316 315 318 322 328 336 340 345 347 348 350 349 347 347 346 348 348 349 350 350
303 303 303 303 303 303 303 303 303 303 303 303 303 303 303 303 303 303 302 303 305 308 310 311 311 311 311 311 311 311 310 309 309 312 315 314 312 310 309 309 309 309 310 308 307 307 308 309 308 309 313 317 317 317 317 317 318 316 316 315 314 314 313 315 315 315 316 316 316 315 317 318 319 327 338 345 347 349 353 351 348 349 349 349 349 349 350 349
303 303 303 303 303 303 303 303 303 303 303 303 303 303 304 304 304 303 302 302 303 305 308 310 311 311 311 311 311 311 309 310 315 318 317 316 316 312 309 309 309 309 309 308 307 307 308 311 310 310 314 316 316 317 317 317 317 316 315 315 314 314 314 315 315 316 317 317 316 315 317 318 317 326 340 344 348 350 349 347 345 348 348 349 349 349 349 349
303 303 303 303 303 303 303 303 303 303 303 303 303 303 303 304 304 304 303 302 302 303 305 307 310 311 311 311 311 311 309 313 321 320 318 317 316 313 310 310 309 309 309 308 307 307 309 313 313 313 315 316 316 317 317 318 317 315 314 314 313 313 314 315 316 316 317 317 316 315 317 318 317 327 340 343 347 350 345 340 337 340 345 347 348 349 349 349
302 303 303 303 302 303 303 303 303 303 303 303 303 303 304 304 305 305 304 303 303 302 303 305 308 309 310 311 311 311 309 312 317 317 317 317 316 314 312 310 310 309 308 308 307 307 311 314 313 313 314 315 316 317 318 318 317 316 314 313 313 313 314 315 316 316 317 317 315 316 317 318 316 321 332 334 337 341 337 336 337 340 344 345 347 349 349 349
302 302 302 302 302 302 302 302 303 302 303 303 303 303 303 304 305 305 305 304 303 302 302 303 305 307 309 310 310 310 310 311 314 315 315 315 316 314 313 311 310 309 308 308 307 308 313 314 312 312 314 316 316 316 317 318 316 315 314 313 313 313 313 314 315 316 317 316 315 317 316 318 317 316 327 331 331 337 339 339 341 344 347 347 348 348 348 349
301 302 302 302 302 302 302 302 302 303 303 303 303 303 303 304 304 305 305 304 304 303 302 302 303 304 307 308 309 309 309 311 316 318 316 316 316 315 316 314 310 309 308 308 307 309 313 313 312 313 313 316 317 316 317 317 315 314 314 313 314 314 314 314 315 316 316 316 316 318 317 317 317 317 330 337 337 340 341 342 344 345 347 347 348 348 348 348
301 301 301 301 301 301 302 302 302 302 302 303 303 302 303 303 303 305 306 305 304 303 303 302 302 303 305 306 307 309 309 312 319 320 318 319 319 318 319 316 312 311 308 307 307 310 313 313 313 314 314 316 316 316 315 316 316 315 314 313 313 313 314 314 315 316 316 317 317 317 317 317 317 318 330 338 341 342 343 344 345 345 346 346 346 347 348 348
301 301 301 301 301 301 301 301 301 302 302 302 303 303 303 303 303 304 305 306 305 304 304 303 302 302 304 305 307 310 311 316 320 319 320 319 319 319 318 316 315 312 308 308 308 311 313 314 315 315 315 315 315 315 314 314 315 314 313 313 313 312 313 314 314 316 316 316 317 317 318 317 316 316 323 334 342 342 344 345 345 345 346 346 345 346 347 348
300 300 301 301 301 301 301 301 301 301 302 302 302 303 303 303 303 303 304 306 306 306 306 305 303 302 303 304 307 310 310 316 320 318 318 316 317 319 316 315 314 313 309 308 310 313 315 315 316 316 315 314 314 314 313 313 314 313 313 312 312 312 313 314 314 315 315 316 317 317 317 316 316 316 320 333 342 341 343 346 346 345 345 344 344 345 347 347
300 300 300 300 301 301 301 301 301 301 301 301 302 302 302 303 303 303 303 304 306 307 307 307 306 304 303 303 305 308 308 313 317 316 314 314 316 317 316 315 314 315 311 308 312 315 315 316 316 315 316 313 312 313 313 313 313 313 313 312 313 313 313 314 314 314 315 316 317 317 317 317 316 316 321 333 341 342 343 345 346 345 344 343 343 344 346 346
299 299 300 300 300 301 301 301 301 301 301 301 301 302 302 303 303 303 303 303 304 306 307 307 307 307 305 305 307 307 308 310 312 312 310 312 316 316 315 315 315 315 312 309 311 314 315 315 315 315 316 314 312 313 313 313 313 314 314 312 313 314 315 315 314 315 315 315 317 316 317 320 319 315 318 331 340 342 343 345 345 344 344 343 345 345 346 346
299 299 299 299 300 300 300 301 301 301 301 301 302 301 302 302 302 303 303 303 303 304 305 306 307 309 307 308 309 309 310 311 312 311 310 313 316 316 315 315 315 315 313 311 310 312 315 315 315 315 314 314 313 313 314 313 314 314 314 315 314 313 317 318 315 315 315 316 317 316 316 320 320 316 315 328 338 340 341 344 344 343 344 344 346 346 345 343
299 299 299 299 300 300 300 300 300 301 301 301 301 302 301 302 302 303 303 303 302 303 303 305 309 310 310 311 311 312 313 312 313 312 311 313 315 317 316 315 315 314 315 314 312 314 314 315 315 315 315 314 313 313 314 314 315 315 314 318 317 313 317 318 314 315 316 316 316 315 317 318 318 318 315 324 335 338 338 342 343 343 344 344 345 344 341 339
298 299 299 299 299 299 300 300 300 300 301 301 301 302 302 302 302 302 303 302 302 303 303 307 313 314 314 315 313 314 315 312 312 313 314 313 314 317 317 316 315 315 315 315 315 315 315 315 314 315 314 314 314 313 313 314 318 319 316 318 319 315 315 316 314 315 315 316 315 314 317 319 318 317 314 321 333 335 336 339 341 342 343 343 343 340 337 337
298 298 298 299 299 299 299 299 300 300 300 301 301 302 302 302 302 302 302 302 303 304 305 310 315 315 315 315 312 314 315 313 311 312 315 314 315 317 318 317 316 316 316 315 316 315 315 315 314 317 316 315 316 314 314 313 316 320 316 317 318 315 314 314 315 315 314 316 316 314 316 319 320 318 313 318 331 335 335 338 339 340 342 342 339 336 336 338
298 298 299 299 299 299 299 299 299 300 300 301 301 302 302 302 302 301 303 305 307 309 310 312 314 314 315 313 312 314 316 316 314 313 314 315 315 317 317 317 317 316 315 315 316 315 315 314 313 319 318 315 315 314 314 313 314 318 317 318 318 315 314 313 314 314 315 316 316 315 315 317 318 317 314 314 328 335 334 336 336 338 340 339 336 336 337 339
298 299 299 299 299 299 299 299 299 300 300 300 301 301 302 303 304 308 313 314 313 316 317 316 314 315 315 314 314 316 316 317 317 316 315 314 314 315 315 316 317 316 315 315 316 314 314 314 313 315 315 314 315 314 312 312 314 316 315 317 316 314 314 313 313 314 314 314 315 315 314 315 315 316 315 313 323 333 333 333 334 336 338 336 335 336 338 339
299 299 299 299 299 299 299 299 299 299 299 300 301 302 302 303 306 314 318 316 315 315 315 314 314 314 314 314 315 316 316 316 317 317 317 315 314 313 313 315 316 316 315 316 316 313 313 315 314 313 314 316 317 317 314 313 314 315 314 314 314 313 314 314 314 315 314 313 314 315 315 315 315 316 317 312 317 326 327 329 332 335 335 334 335 336 338 338
298 298 298 299 299 299 299 299 299 299 299 300 303 304 304 303 304 309 311 310 310 309 309 310 311 312 312 312 313 314 315 316 316 317 318 316 314 313 313 314 315 316 315 314 315 314 313 315 314 313 315 317 319 321 319 317 316 315 314 314 314 314 314 315 315 316 316 315 315 315 314 315 315 316 316 314 315 318 322 329 332 334 334 333 335 335 336 336
298 298 298 298 299 299 299 299 299 299 300 302 306 307 306 306 306 306 306 306 308 308 309 309 309 310 310 310 312 313 316 317 316 317 317 316 315 313 315 315 315 316 315 313 313 313 313 314 314 313 315 317 319 320 320 319 318 317 315 315 315 315 315 317 318 319 317 316 317 316 314 314 315 316 316 315 316 317 322 330 333 333 333 333 333 333 333 333
297 298 297 298 298 299 299 299 299 299 301 305 309 308 307 309 310 309 309 308 308 309 310 311 311 311 310 310 310 312 316 318 317 317 316 315 314 313 315 316 315 315 315 314 315 314 314 314 313 312 314 316 318 318 319 319 319 319 318 316 316 315 315 318 320 320 318 318 318 316 314 314 315 316 315 318 321 324 326 331 333 333 333 333 333 333 333 333
298 298 298 298 298 298 299 299 299 300 304 309 311 307 307 310 310 311 311 309 311 312 311 311 311 311 311 311 310 312 316 316 316 317 316 313 313 313 315 316 315 314 313 314 314 314 313 312 312 313 315 316 317 317 319 319 319 321 321 318 316 317 318 319 320 320 320 323 321 316 313 316 322 320 315 322 328 330 330 332 333 333 333 333 334 335 334 334
298 298 298 298 298 299 298 299 300 302 306 311 309 305 306 309 310 311 312 313 316 315 312 312 312 312 311 311 311 313 315 315 315 317 316 314 313 314 315 315 315 314 313 313 313 313 312 312 313 315 316 315 315 317 318 320 320 320 323 323 320 320 321 321 320 319 319 322 325 320 312 316 331 327 318 325 331 332 331 332 332 332 333 333 333 334 334 334
297 298 298 298 298 299 298 300 300 301 303 305 305 303 304 308 310 310 313 318 321 318 315 314 313 314 312 312 312 313 315 315 314 316 316 314 314 315 315 315 314 313 312 311 312 312 312 312 313 315 317 315 315 315 315 320 319 319 326 329 323 320 320 321 320 316 316 321 326 326 320 322 330 326 323 329 332 332 332 331 332 332 331 332 332 333 333 333
297 297 297 298 298 299 299 300 299 300 303 304 304 303 304 308 309 309 314 319 321 319 317 315 313 314 314 313 312 313 317 317 315 316 316 315 315 316 316 315 314 312 312 311 311 312 313 313 314 316 317 316 315 314 316 320 318 321 331 328 320 318 319 321 318 316 319 322 326 330 329 326 323 321 324 331 332 331 333 332 331 332 331 332 332 332 333 333
297 297 298 298 299 299 300 299 299 303 308 307 304 302 305 309 308 312 318 317 317 317 317 314 313 314 312 313 312 314 317 317 316 317 316 316 316 316 316 314 313 312 312 311 311 315 317 316 315 316 317 316 315 314 317 319 318 326 334 325 319 319 318 320 317 316 320 320 324 334 331 323 326 327 324 329 334 333 333 332 331 331 330 331 331 332 333 332
297 297 298 298 299 300 299 299 300 306 311 309 305 304 307 307 308 315 319 318 315 315 315 314 315 315 312 313 313 313 315 316 317 317 316 316 316 316 316 314 313 312 311 312 313 315 317 315 314 315 316 317 316 315 317 319 320 326 327 320 318 317 317 318 316 316 319 317 322 335 330 320 329 334 324 326 334 334 332 332 331 330 330 331 331 331 332 332
297 298 299 299 300 300 300 300 299 305 311 309 306 306 305 307 316 320 318 319 317 314 315 315 316 316 314 313 313 314 315 315 316 315 315 316 316 315 316 315 313 313 314 314 314 314 313 313 315 314 315 317 319 318 317 318 321 321 320 316 314 316 317 319 320 319 318 320 326 333 329 320 323 330 327 327 332 332 332 332 331 330 330 330 331 331 331 331
298 299 300 301 300 300 300 300 300 306 310 308 307 306 305 309 319 321 318 317 317 315 314 315 316 317 316 313 315 315 314 316 316 315 315 316 315 315 316 316 315 315 316 315 315 317 314 312 316 316 315 316 317 318 316 316 317 316 318 316 315 322 322 320 323 318 315 325 334 332 325 320 322 329 334 331 328 330 332 332 331 330 329 330 331 331 331 330
299 300 301 301 299 300 301 300 302 306 308 308 306 306 309 310 313 318 318 316 320 318 313 313 314 317 317 315 316 316 315 317 316 315 316 317 317 316 316 319 320 316 318 319 318 319 318 316 316 316 317 316 316 319 317 316 316 314 317 317 315 321 323 324 326 322 321 327 331 328 322 320 324 329 332 332 329 330 331 330 330 329 328 329 330 330 331 331
300 301 301 300 301 304 304 301 300 304 307 308 305 308 316 314 312 317 315 312 318 315 310 311 311 313 318 318 317 316 316 317 316 315 316 316 317 316 314 318 320 316 320 324 319 316 318 319 316 314 317 316 316 318 316 318 319 314 316 318 317 320 321 324 326 323 323 323 323 325 320 319 328 331 331 332 330 329 329 328 328 328 328 329 330 331 331 331
302 302 300 302 306 306 304 301 298 302 306 306 307 312 314 311 313 318 311 309 312 311 310 311 309 310 315 317 318 318 316 317 316 314 315 316 317 318 316 315 316 316 317 319 317 317 317 318 321 318 316 316 316 317 317 322 323 317 318 318 320 328 328 323 325 325 323 323 326 325 317 320 334 337 331 329 328 328 328 328 328 328 328 329 330 331 331 331
302 301 300 305 310 308 304 301 299 301 303 304 310 315 313 310 315 317 312 311 311 309 310 309 308 310 313 317 321 320 318 319 319 315 316 318 317 320 319 315 315 316 316 317 320 318 313 317 325 318 314 316 316 316 316 317 319 320 320 316 316 327 332 327 327 330 327 324 324 324 322 325 332 334 329 328 329 329 328 327 328 328 329 331 331 331 331 331
305 304 302 307 314 313 306 301 300 302 303 305 310 313 313 314 314 312 312 311 309 308 308 307 308 311 314 318 321 319 320 326 326 320 319 318 317 319 318 316 316 314 315 320 324 318 313 319 325 317 314 317 314 316 316 313 322 325 318 317 318 320 328 328 323 325 327 323 321 327 329 328 329 331 329 330 332 333 332 330 329 329 331 332 331 331 331 331
310 311 308 310 314 314 308 303 302 304 306 311 314 314 314 313 310 308 308 308 308 308 306 307 310 311 312 316 318 318 320 325 325 321 321 321 321 321 319 318 318 316 315 317 319 320 316 318 323 317 314 318 313 314 316 313 322 324 316 319 321 316 322 329 326 327 327 324 327 332 330 329 331 332 330 330 333 333 333 332 329 330 331 331 330 331 332 332
313 315 312 312 314 314 311 308 306 305 310 316 317 316 314 310 307 307 307 307 307 307 305 307 311 311 311 312 314 316 318 322 321 321 324 324 323 323 322 321 319 317 317 315 316 322 318 316 325 322 315 318 316 312 316 317 316 317 318 319 320 321 326 327 325 327 325 323 325 326 325 327 329 328 328 331 333 332 331 331 330 330 330 329 330 332 333 333
311 314 314 312 313 313 313 312 310 309 313 317 315 314 311 309 308 307 307 306 306 306 306 307 310 311 311 311 313 313 316 322 322 322 324 324 324 323 321 321 321 317 317 317 317 321 319 315 324 329 317 318 325 320 317 322 322 318 320 320 322 332 334 326 324 328 328 326 324 323 325 327 325 324 327 328 329 329 329 330 331 329 328 329 329 330 331 332
308 313 315 314 313 313 313 313 313 312 314 316 315 312 309 308 308 307 308 308 306 307 308 307 308 310 311 312 313 312 314 321 324 323 324 324 326 325 320 320 322 319 317 319 320 322 323 318 321 330 323 320 331 327 316 320 324 322 325 325 324 326 325 323 324 326 330 333 329 326 326 326 324 324 325 326 327 327 326 327 327 326 326 327 327 327 327 327
311 313 315 314 313 314 313 314 314 314 315 315 314 312 310 309 309 310 311 310 308 308 307 306 308 310 312 312 312 311 312 320 324 322 323 325 325 327 324 319 320 320 321 326 325 322 325 325 325 330 325 320 326 324 315 318 321 322 326 325 323 324 324 324 324 323 330 335 331 329 329 326 324 325 324 325 326 327 325 324 323 324 324 325 325 325 324 325
314 314 314 313 313 313 313 314 315 313 314 315 313 312 311 311 311 311 311 310 310 309 308 309 310 312 313 312 311 310 311 317 324 322 321 324 323 323 323 318 317 320 323 327 326 322 325 328 327 326 322 318 317 317 317 318 318 321 324 321 324 329 330 333 332 326 327 327 326 331 334 328 323 324 324 324 324 325 324 323 322 322 323 324 324 324 325 326
310 313 314 313 312 312 313 316 316 314 314 313 312 311 310 311 311 310 310 310 310 309 309 311 311 311 312 311 310 311 310 314 321 322 321 325 325 321 319 317 316 319 323 326 326 325 326 325 325 327 329 327 320 316 317 317 319 324 325 324 325 323 326 334 336 333 329 325 326 332 332 326 323 324 324 323 323 324 323 323 322 322 322 323 324 324 325 326
309 312 313 313 313 313 313 314 315 316 315 312 311 311 311 310 311 310 311 311 310 309 309 310 311 310 310 310 310 311 311 312 316 318 319 322 323 319 317 317 317 319 322 324 324 325 324 324 326 329 331 330 323 318 318 319 321 324 324 325 324 324 330 330 327 333 331 323 326 330 328 325 324 323 323 323 324 324 323 323 322 322 323 323 323 323 324 326
311 312 312 313 312 311 312 312 312 314 314 312 313 313 311 311 311 311 311 311 310 309 310 310 310 310 310 311 311 311 312 313 315 317 316 318 319 316 316 317 317 319 321 321 321 324 326 328 330 329 328 326 323 322 324 323 323 324 324 326 325 328 333 325 323 334 331 322 328 331 327 325 324 323 324 323 323 324 322 321 321 322 322 322 322 322 323 324
312 311 311 311 309 308 310 310 310 313 314 314 314 312 311 311 311 310 311 311 310 310 310 310 311 311 312 313 314 314 314 315 317 318 317 317 317 315 316 318 318 319 321 319 318 322 327 327 327 326 326 327 325 325 326 323 324 326 324 326 328 329 331 330 331 335 329 327 330 327 324 326 325 323 324 322 322 323 322 321 321 321 321 322 321 321 321 322
311 310 310 310 308 309 310 309 309 312 313 313 312 310 310 310 310 310 311 311 310 310 310 310 311 312 313 314 317 316 315 315 317 318 317 317 317 316 315 318 320 319 319 317 316 324 330 326 321 321 321 320 320 321 322 320 321 324 323 325 329 331 335 338 334 326 323 329 330 324 323 326 325 323 323 322 322 321 320 319 319 319 319 319 319 319 319 320
309 309 308 309 310 311 312 310 310 312 312 312 311 310 310 310 310 310 311 311 310 309 311 312 311 311 310 312 316 315 315 318 318 317 317 314 316 321 319 318 319 318 318 319 318 324 330 323 319 322 322 319 318 319 319 319 319 320 322 324 325 327 332 335 331 324 323 329 328 323 323 323 322 320 318 316 316 315 314 315 314 314 315 314 315 315 315 315
308 309 308 309 310 310 310 308 308 309 310 311 312 311 310 311 310 309 310 312 311 309 310 311 311 311 309 310 314 313 313 317 316 316 317 313 314 322 321 319 318 316 319 324 322 321 325 322 319 323 323 320 318 318 318 318 318 318 319 320 320 321 323 325 324 322 321 324 322 320 319 318 316 314 311 310 310 310 310 310 310 310 310 309 311 310 310 311
308 310 309 310 311 310 309 309 307 309 310 311 312 311 310 310 310 309 309 311 312 310 309 309 310 311 309 309 311 311 309 310 311 313 315 313 314 319 318 318 322 319 319 326 324 319 321 321 319 322 324 320 318 318 318 317 317 317 317 317 318 319 320 320 320 319 319 319 317 316 316 315 312 310 309 308 308 308 308 307 307 307 307 307 307 307 307 308
308 310 309 312 313 310 309 308 308 312 314 312 312 312 310 310 310 310 311 310 309 310 309 308 310 312 311 310 310 309 307 306 307 309 310 310 312 314 313 316 321 322 322 325 323 321 322 321 319 321 324 320 316 317 318 316 317 319 318 316 317 319 319 318 319 319 319 317 316 317 316 314 311 310 308 308 307 307 306 306 306 305 305 305 305 305 306 306
308 310 309 312 313 308 306 308 310 312 312 309 311 312 310 310 310 311 313 311 308 308 308 308 309 310 311 311 309 307 306 305 306 307 307 308 309 310 310 311 315 322 325 324 323 323 323 322 321 321 321 318 316 317 318 318 319 320 316 314 315 317 317 318 318 318 318 317 317 318 316 313 311 309 308 308 307 306 305 305 305 305 304 305 305 305 305 306
Wind_Speed
9 9 9 9 9 10 10 10 10 9 9 8 8 9 9 9 9 9 10 9 10 10 9 10 12 12 13 15 16 17 18 18 17 18 20 11 5 9 13 14 12 12 13 12 12 11 11 13 14 13 13 11 10 11 11 11 12 9 3 5 4 5 7 3 4 5 4 8 10 17 17 3 7 10 15 15 17 20 17 13 13 11 14 20 19 32 36 30
9 9 9 9 9 9 9 10 10 10 10 9 9 9 9 9 9 10 10 10 10 10 9 11 11 12 14 15 17 19 19 20 21 19 16 9 9 11 10 11 13 13 13 12 12 12 12 14 15 14 13 10 8 9 9 7 10 8 3 4 5 8 6 1 5 8 6 9 12 20 21 3 6 7 11 8 7 15 15 10 15 20 19 20 25 35 32 30
9 9 9 9 9 9 9 9 10 10 10 10 10 9 9 9 9 9 10 10 10 10 11 12 12 13 14 15 17 19 20 23 19 10 5 4 7 10 10 10 12 13 12 10 10 11 11 12 13 14 13 9 9 10 8 6 7 9 7 3 7 9 6 9 12 12 13 13 12 20 17 6 9 2 9 7 6 9 11 8 11 18 23 28 33 34 31 31
10 10 10 10 10 10 10 10 10 10 10 10 10 10 9 9 9 9 10 10 10 11 12 12 13 13 14 16 17 18 22 20 9 1 4 5 5 3 10 11 10 12 11 10 10 11 11 10 9 12 11 6 10 11 9 10 7 6 7 5 8 7 6 15 16 15 20 19 15 17 11 9 13 4 13 12 9 1 7 18 16 19 30 34 34 33 32 31
10 10 10 10 10 10 10 10 10 10 10 10 10 10 10 10 10 10 10 10 10 10 12 12 13 13 14 16 16 18 19 11 1 3 3 4 6 3 5 9 10 11 11 10 11 13 13 13 9 10 10 5 7 7 8 16 13 5 5 8 13 10 6 16 20 19 24 24 18 11 5 7 11 7 21 17 9 5 14 21 20 24 32 35 36 35 33 32
10 10 10 10 11 11 11 11 11 11 10 10 10 10 10 10 10 10 10 10 10 10 11 12 13 13 14 15 16 18 13 4 3 2 1 3 5 4 1 6 9 10 11 11 13 15 17 15 10 9 7 4 6 6 8 17 14 6 7 12 19 17 10 17 22 21 24 21 13 12 10 6 10 3 15 12 6 14 21 20 21 25 30 35 37 36 34 32
11 11 11 11 11 11 11 11 12 11 11 11 10 10 10 10 10 10 11 11 10 10 11 13 13 13 14 15 16 15 13 10 6 4 4 1 2 3 2 2 7 9 12 13 15 18 19 15 10 9 5 4 6 7 13 18 13 7 7 10 20 22 15 21 25 24 27 21 17 22 17 4 4 7 1 4 8 18 20 19 25 28 31 34 35 35 34 32
11 12 11 11 12 12 12 12 12 12 12 11 11 11 11 11 10 10 11 11 11 10 11 12 12 14 13 14 14 14 17 13 4 1 4 2 1 2 4 4 4 8 11 13 17 21 20 16 13 11 5 6 8 7 13 14 9 7 9 11 17 21 20 25 25 25 25 18 20 21 14 8 4 2 2 7 15 19 20 23 26 29 31 33 33 33 32 31
12 12 12 12 12 12 12 12 13 13 12 12 12 12 11 11 11 11 11 11 11 10 11 11 12 14 12 14 12 11 14 7 0 2 4 2 2 5 7 7 5 7 9 14 18 20 18 15 16 13 6 10 11 10 12 7 4 6 10 14 14 17 21 25 23 24 21 14 16 11 8 12 4 4 3 10 18 20 23 26 27 29 31 30 30 32 32 31
12 12 12 12 12 12 13 12 13 13 13 13 12 12 12 12 11 11 11 11 11 10 11 10 11 12 13 14 7 4 7 2 2 4 5 3 4 6 9 9 7 7 8 14 20 22 19 15 15 11 8 12 11 11 11 6 8 11 13 15 15 17 20 21 20 25 20 12 15 8 5 11 4 4 3 9 19 23 26 27 28 29 30 30 28 31 32 30
12 12 13 13 13 13 13 13 13 13 14 14 13 13 13 13 12 11 11 11 11 10 11 11 11 12 13 13 8 5 5 4 3 4 5 4 6 8 8 8 9 8 8 14 22 22 18 14 12 8 6 7 7 10 12 9 12 15 15 13 15 16 17 16 14 20 15 7 16 14 6 7 2 3 8 16 21 24 27 28 29 29 29 28 27 30 31 28
13 13 13 13 13 14 14 14 14 13 14 14 14 14 14 14 13 12 11 11 12 11 11 12 11 13 14 15 17 9 4 6 5 5 4 7 9 9 7 8 9 9 8 14 23 20 15 12 10 10 9 7 4 5 9 11 12 14 11 7 10 11 9 11 10 16 13 5 16 15 4 5 2 5 12 25 26 24 27 29 29 29 28 28 28 29 28 25
13 13 13 14 14 14 14 14 14 14 14 14 14 14 15 15 14 13 12 12 13 12 13 13 13 15 14 16 20 11 9 13 11 13 13 11 11 9 8 9 9 9 8 12 21 18 13 11 11 16 18 13 7 5 10 15 12 11 8 3 6 8 6 7 6 11 9 5 15 13 2 6 5 11 14 25 30 25 24 26 26 26 27 28 28 28 26 23
14 14 14 14 14 14 15 15 15 15 15 15 14 14 15 16 16 14 13 13 14 13 14 13 14 15 13 18 21 13 13 15 15 19 15 13 12 9 10 11 10 10 7 9 16 16 12 10 13 18 20 17 11 8 9 10 7 5 5 3 2 3 5 7 4 5 4 5 14 12 3 7 7 13 17 22 33 29 23 24 24 24 25 25 24 26 26 20
15 15 15 14 14 14 15 15 15 16 16 15 14 15 15 16 17 15 15 15 14 14 14 12 12 12 14 22 21 11 11 14 20 20 14 15 15 12 11 11 11 9 8 8 11 11 10 11 14 15 14 12 9 4 4 4 4 1 2 5 3 3 5 8 6 4 4 5 9 9 3 7 6 14 21 22 34 32 25 24 23 24 24 23 24 26 27 22
16 17 16 15 14 14 14 15 15 16 16 16 15 15 16 17 18 16 17 17 16 15 12 9 8 7 9 14 13 6 11 17 20 18 14 13 15 15 9 8 10 10 11 11 10 11 13 15 15 12 9 7 4 1 2 4 4 2 2 4 4 3 4 6 6 6 8 5 3 6 4 4 5 14 23 20 31 30 23 23 24 24 24 26 27 28 30 26
17 18 17 16 15 14 14 14 15 16 16 16 16 15 15 16 18 18 18 18 16 12 9 7 5 6 10 13 11 9 8 14 17 17 17 13 14 16 10 10 13 13 14 14 14 16 16 14 10 8 5 3 2 4 0 4 5 4 1 3 4 4 4 4 6 6 6 5 4 5 4 6 7 11 20 20 31 27 20 24 24 22 25 27 29 30 29 26
18 18 17 16 15 14 14 14 15 16 16 16 16 16 16 16 17 17 18 16 11 5 6 8 3 3 10 12 10 7 5 6 11 14 17 15 15 17 15 15 14 14 14 13 14 15 13 8 3 3 3 2 2 5 4 5 4 3 2 2 4 4 4 5 6 5 3 4 6 6 4 9 11 9 15 17 29 28 22 25 22 24 29 29 31 32 29 26
18 18 17 16 15 14 14 14 15 16 16 16 14 14 15 14 14 13 11 8 7 4 3 8 8 3 8 13 13 12 12 13 13 14 18 18 16 17 18 18 16 16 11 5 8 10 7 3 1 4 4 5 4 5 7 4 3 5 5 3 4 5 5 7 8 5 3 3 6 8 7 11 14 11 12 12 24 30 22 20 21 25 29 30 33 33 30 27
17 17 17 16 15 14 13 13 14 15 16 15 12 11 10 8 6 5 6 9 12 11 13 14 17 18 20 25 25 21 19 18 16 16 19 18 18 17 18 18 15 14 8 4 4 6 7 4 4 7 6 6 7 7 8 5 5 6 5 5 5 5 6 7 8 7 4 4 7 10 10 13 15 12 13 12 16 21 18 20 23 24 27 30 33 32 29 28
18 18 17 16 15 14 13 13 13 14 16 14 11 9 7 6 4 5 8 14 20 20 20 21 22 27 27 28 28 22 18 17 16 16 18 18 20 16 15 14 8 6 7 6 5 3 6 6 7 8 7 9 9 8 7 6 7 7 6 7 7 5 8 10 7 7 4 4 8 10 11 15 15 12 14 11 9 11 18 22 23 26 26 29 34 34 32 31
18 17 17 16 15 13 12 12 13 14 14 12 10 8 9 12 12 13 11 13 23 25 22 24 25 30 32 30 29 25 17 15 16 15 16 20 21 14 11 10 5 4 5 5 3 1 2 6 10 11 9 9 8 7 7 7 7 7 5 4 6 5 6 9 6 6 3 3 7 8 10 14 15 14 12 7 2 7 25 34 32 34 31 30 34 34 34 35
17 16 16 16 14 13 12 11 12 12 12 12 11 8 12 17 18 16 11 9 20 25 22 24 26 31 35 31 29 24 17 14 14 17 17 21 22 18 12 7 5 6 4 4 5 3 3 8 11 11 8 7 8 8 6 5 5 5 5 3 6 5 3 6 5 4 3 4 7 7 9 9 9 10 6 5 9 9 23 34 33 37 37 34 36 36 36 37
16 16 16 16 14 12 11 11 11 10 10 11 8 8 13 17 19 16 8 5 11 18 20 23 23 30 34 28 22 20 20 19 16 17 18 23 23 18 12 7 6 5 4 6 7 6 9 13 7 6 7 8 8 8 5 4 4 5 7 7 7 5 5 7 6 5 7 7 3 4 5 4 5 6 2 8 15 16 19 26 25 28 33 34 37 37 37 36
16 16 16 16 15 13 11 11 8 7 10 10 7 9 11 12 16 16 7 1 6 10 13 14 16 23 27 20 17 17 17 19 21 19 20 26 25 16 9 9 7 5 6 8 7 6 13 16 5 5 8 9 8 8 7 6 5 6 7 9 9 6 6 7 6 5 6 7 2 5 5 3 5 0 3 5 10 11 14 20 21 25 29 33 37 36 35 34
17 16 16 16 15 14 11 7 6 8 10 8 7 10 10 7 11 11 4 2 4 6 4 6 10 10 11 14 20 16 7 11 22 24 21 27 28 18 9 6 5 5 7 6 3 3 9 11 7 8 9 9 9 9 8 8 5 6 6 8 8 6 4 7 6 4 1 4 4 3 5 3 4 5 6 7 10 10 11 15 18 24 27 29 32 32 32 34
18 17 16 16 16 16 13 8 7 8 7 7 8 9 9 5 6 5 1 3 4 4 2 5 7 3 5 14 22 17 2 7 16 21 24 28 27 21 11 5 4 6 6 4 2 3 7 9 7 7 8 7 7 7 8 9 7 6 6 7 6 3 5 7 5 3 3 5 5 3 4 3 3 3 6 10 12 10 11 13 15 21 26 27 29 32 34 35
18 18 17 15 14 15 15 12 8 5 4 6 9 7 6 4 3 1 2 2 4 3 1 4 6 3 5 13 25 20 5 6 8 14 26 29 23 17 9 5 7 8 6 6 5 5 5 8 9 8 7 5 6 10 10 9 7 7 6 7 5 4 7 6 5 5 3 2 6 6 3 3 1 2 3 9 11 8 10 13 13 17 24 27 30 34 35 34
17 18 17 15 13 13 15 13 7 4 4 6 6 5 4 3 2 2 3 0 3 2 1 4 4 3 6 13 21 20 10 6 5 10 24 28 25 17 9 10 10 7 6 6 6 7 5 10 13 8 6 6 9 13 10 10 7 7 5 4 2 3 4 4 4 4 2 1 5 6 2 3 2 3 3 6 6 8 8 8 9 14 21 26 29 33 33 33
17 17 17 16 14 12 13 12 6 3 5 6 4 3 2 1 3 4 1 3 3 3 2 2 1 3 9 9 9 14 11 5 3 9 17 22 27 20 11 15 11 3 4 3 5 8 9 14 13 7 7 8 10 9 9 12 9 3 3 2 2 2 1 1 2 1 2 2 7 6 3 5 1 4 2 2 4 10 10 7 7 11 17 23 27 29 30 33
16 15 15 16 15 13 13 10 3 3 4 4 4 0 2 2 4 3 2 3 3 4 2 3 4 2 7 9 7 10 9 5 4 9 8 9 14 11 4 7 6 1 2 3 4 7 8 10 8 6 11 9 7 5 4 6 5 4 3 1 1 4 3 2 3 3 3 3 7 6 5 7 2 4 3 3 5 13 15 13 13 14 17 22 25 26 29 32
14 13 14 15 15 13 11 7 3 5 3 2 5 3 4 3 2 2 3 5 3 2 3 4 6 5 1 4 5 8 7 5 4 7 5 4 6 6 4 5 5 2 3 3 3 6 6 6 5 6 10 7 6 3 3 3 2 3 2 3 2 3 2 2 3 0 2 4 6 5 4 4 3 4 4 5 6 16 15 15 17 16 18 21 24 27 28 28
13 13 13 12 12 11 7 4 6 7 6 3 3 3 5 4 2 5 5 3 1 2 6 8 10 8 3 4 3 6 6 4 4 5 6 5 5 7 7 6 6 5 3 4 2 4 4 6 5 3 4 4 7 4 2 3 0 3 3 4 4 2 1 1 3 1 1 4 6 4 3 2 3 3 5 7 6 16 14 16 20 18 18 20 22 27 28 28
13 12 11 7 6 6 4 3 7 9 9 6 1 4 5 2 4 5 4 5 4 7 9 10 14 12 5 6 3 3 2 4 3 4 6 5 4 5 5 6 6 5 3 2 2 3 3 5 4 3 4 3 6 6 6 4 3 3 3 5 5 4 4 2 3 2 3 3 4 4 1 2 2 2 6 7 4 11 9 14 20 18 19 21 22 25 29 30
11 10 8 2 2 5 4 1 6 8 9 7 4 5 3 3 3 2 3 4 3 7 12 12 11 9 6 4 3 4 1 2 2 1 4 6 6 6 5 6 7 5 4 2 3 2 4 6 7 6 6 6 6 6 7 6 1 4 2 4 3 5 5 2 3 4 3 0 3 2 1 0 2 2 7 6 6 8 7 10 15 17 21 22 23 25 28 30
8 7 4 2 3 3 5 3 4 7 9 8 5 2 4 4 2 2 2 4 4 8 12 12 7 3 5 4 2 3 3 2 3 4 1 4 6 4 4 3 3 4 4 4 3 1 3 5 7 4 3 6 9 7 6 7 3 2 2 3 4 4 7 5 2 1 5 2 3 1 2 1 1 2 7 6 5 6 6 8 12 16 20 18 19 24 27 28
6 7 3 4 4 2 6 8 7 8 9 8 5 3 4 3 3 3 5 8 9 9 7 6 5 3 4 4 3 3 1 1 1 0 2 2 1 1 2 1 4 2 2 3 3 2 3 5 7 3 4 8 10 7 3 7 7 3 1 4 2 3 4 4 2 3 5 1 4 2 3 2 1 1 4 6 3 4 5 6 8 12 15 13 15 21 24 24
7 8 7 4 5 7 7 8 9 9 8 6 1 3 3 2 3 5 9 11 10 8 4 3 4 3 3 3 5 5 2 2 2 4 0 2 1 2 2 1 4 3 3 1 2 2 2 3 7 5 5 6 3 2 3 3 2 4 3 3 2 2 0 1 2 2 2 2 2 3 1 2 2 0 4 5 3 0 3 5 6 7 9 11 15 19 21 22
7 5 7 6 6 9 8 7 8 7 6 4 1 2 2 4 6 10 14 12 8 6 4 3 4 3 5 4 3 2 2 4 2 3 1 1 2 3 2 2 0 2 5 3 3 2 1 2 5 6 4 2 4 3 1 5 5 3 2 2 2 3 3 2 2 4 4 3 2 1 1 1 0 3 5 6 6 4 3 3 4 5 6 8 11 13 14 16
6 3 4 3 4 7 9 8 7 5 3 1 3 2 3 4 7 14 18 13 8 5 4 5 4 4 5 4 2 3 2 2 2 1 0 1 1 3 3 3 0 2 6 7 2 1 3 2 4 6 5 3 2 0 2 1 1 3 4 3 2 1 3 2 1 2 4 5 3 2 2 1 1 3 5 4 1 5 6 4 2 6 9 8 5 5 5 4
3 3 2 3 3 5 10 8 4 2 2 1 3 3 4 5 7 13 18 16 11 9 9 9 5 3 4 2 3 4 2 1 2 2 1 1 1 1 3 3 2 2 3 6 3 0 1 1 3 3 4 3 1 3 6 7 4 4 3 2 1 2 4 4 1 2 2 4 4 4 3 1 3 3 4 2 6 7 7 7 6 10 15 14 11 9 5 3
3 2 2 3 3 4 8 6 1 1 2 2 4 4 7 7 7 9 14 15 11 9 10 7 3 2 2 1 2 4 4 1 2 2 1 2 4 5 6 6 6 6 4 1 2 1 2 3 2 1 0 1 2 1 9 12 9 6 3 1 2 2 4 5 4 3 1 2 2 3 3 0 3 3 3 5 7 8 12 11 7 11 17 17 15 13 7 5
2 1 3 3 2 2 4 1 3 1 2 4 5 7 9 6 5 7 8 9 7 6 6 3 2 2 1 2 3 4 5 2 2 2 1 2 4 8 9 8 9 8 4 2 2 2 1 3 3 2 3 1 3 3 5 8 7 6 3 3 3 1 3 5 5 4 3 2 1 3 2 1 2 3 3 9 11 12 15 14 8 9 17 22 21 18 14 10
2 2 3 2 1 1 2 1 2 2 3 4 4 6 8 5 5 7 5 4 5 4 5 4 2 2 2 4 3 4 6 3 3 2 1 2 2 4 5 9 8 5 2 4 4 2 1 1 2 2 3 3 3 3 4 5 4 4 1 4 3 2 3 2 1 3 3 2 3 5 2 2 0 2 4 8 11 12 13 11 8 11 17 23 25 21 18 15
3 2 2 3 3 3 4 2 2 2 2 4 4 5 7 6 7 7 4 4 5 4 3 4 4 5 5 5 4 5 6 2 2 3 4 2 3 6 4 3 4 3 2 4 4 3 2 1 2 5 3 2 2 4 3 0 2 2 1 4 5 5 5 2 2 4 2 2 3 4 3 3 2 4 5 6 8 9 8 7 9 15 19 21 25 25 22 18
3 2 1 4 6 7 7 3 2 2 1 2 3 4 5 5 6 7 4 3 7 9 5 4 7 7 6 6 5 6 7 4 2 3 4 4 3 5 11 14 12 10 10 10 8 5 3 1 3 5 5 4 3 5 5 1 3 3 2 5 6 4 5 4 3 2 2 2 3 1 5 8 6 5 7 7 7 8 6 6 10 16 20 19 23 27 26 24
3 1 1 2 3 6 5 4 4 3 1 1 2 3 5 5 6 6 5 3 9 11 5 4 9 7 5 5 4 5 7 6 5 5 4 5 2 3 11 16 13 12 11 10 8 4 4 3 3 3 2 2 4 4 2 2 3 4 4 4 5 4 6 7 3 0 2 4 2 2 6 9 7 6 8 7 7 7 7 8 11 16 19 20 22 27 29 28
3 2 3 3 0 1 2 3 3 3 2 2 2 2 5 7 6 5 4 4 8 12 7 5 8 8 7 6 4 3 6 4 5 4 4 5 4 4 7 8 7 9 9 6 6 4 5 2 3 4 4 7 9 8 4 4 5 4 5 5 5 6 7 6 1 2 1 4 4 6 7 7 6 6 6 6 6 7 8 12 15 19 22 23 25 27 28 28
5 3 3 3 1 4 3 2 3 4 4 2 1 3 4 7 7 5 5 3 6 11 8 5 7 8 8 7 5 4 4 3 3 4 3 5 5 3 4 3 4 8 7 4 5 4 4 2 2 4 5 8 11 11 6 4 7 7 7 6 6 8 9 8 5 6 9 8 8 10 11 8 4 4 6 7 8 12 16 19 21 22 23 26 28 28 27 28
6 4 2 3 3 1 4 1 3 4 4 3 2 1 2 5 7 6 5 5 4 6 7 6 7 7 6 7 5 3 2 1 2 4 2 4 4 2 2 1 1 4 5 3 3 5 4 1 1 4 4 4 8 9 6 5 10 9 8 9 7 7 9 8 7 9 10 9 9 12 11 7 3 4 7 8 11 17 19 20 21 21 23 28 29 28 27 28
7 5 3 2 2 1 2 2 2 4 2 3 1 2 1 3 5 5 5 7 6 5 6 6 6 5 5 7 6 3 4 4 5 9 8 4 5 4 1 1 1 2 2 1 2 3 3 1 1 4 4 1 4 6 5 1 9 10 10 11 10 5 6 5 3 4 6 8 10 9 7 4 2 3 8 11 16 19 17 17 20 22 26 30 30 29 29 29
6 5 4 4 2 4 2 1 2 3 1 1 2 2 0 1 4 2 2 7 9 9 9 6 5 4 4 5 6 10 14 15 15 18 17 13 12 10 7 7 5 4 2 2 3 1 2 4 2 3 4 1 3 4 5 3 5 7 7 9 8 3 5 6 5 5 4 6 7 5 4 5 6 6 8 10 14 16 15 17 20 21 25 30 30 29 29 29
Wind_Direction
355 356 358 360 3 5 5 3 356 349 342 335 330 327 322 312 302 293 291 295 298 294 302 316 312 315 322 324 324 323 320 312 307 296 283 285 294 254 246 242 228 222 227 221 213 206 203 203 197 191 194 196 215 236 233 241 242 237 211 201 233 241 243 162 174 246 262 295 298 316 329 66 105 106 105 101 104 99 98 90 108 125 144 161 161 160 161 160
347 349 350 351 353 354 358 359 357 355 348 341 335 331 327 321 314 304 295 288 290 292 293 302 305 310 316 319 323 322 320 316 312 301 288 280 261 251 248 241 224 219 222 218 214 208 203 198 192 185 189 194 207 231 234 242 225 209 181 190 221 233 241 174 230 258 276 298 306 310 310 12 97 148 135 110 108 101 91 74 100 114 127 146 153 158 163 164
340 342 342 344 345 346 348 348 350 351 350 348 340 336 333 328 324 315 306 294 289 290 290 295 300 306 311 315 320 321 321 321 316 311 319 313 270 248 244 240 223 222 216 208 209 209 206 192 187 185 184 202 218 229 241 245 220 207 204 201 237 240 266 273 263 272 283 291 299 301 302 352 11 180 154 124 128 110 115 129 111 119 134 144 153 160 164 167
335 336 337 339 339 341 341 341 342 341 345 347 343 339 333 331 330 322 315 305 292 286 286 290 295 301 306 311 317 319 324 326 314 140 57 21 4 268 237 237 230 225 207 195 198 197 196 178 178 188 184 215 233 238 248 241 239 212 197 204 244 249 277 268 269 278 281 284 282 292 308 346 353 111 146 126 115 31 165 160 155 150 149 151 157 162 165 168
330 330 331 332 333 335 334 335 334 335 337 338 342 340 334 331 328 326 321 314 304 290 284 285 289 295 300 307 314 316 326 339 231 142 62 31 24 0 226 224 222 215 200 191 190 186 184 175 180 199 196 221 236 238 247 240 244 253 238 241 251 252 259 266 272 273 272 278 279 290 323 331 339 119 150 149 139 196 184 169 169 164 159 160 162 163 166 168
324 324 325 326 327 328 327 328 327 329 331 330 335 335 335 330 324 326 322 320 315 300 288 281 285 290 295 303 307 311 320 304 245 282 312 20 11 352 233 207 206 204 196 187 188 183 183 185 193 211 205 220 228 222 243 245 237 245 269 259 259 257 250 264 267 267 269 272 273 282 287 297 334 36 162 185 193 178 177 173 171 167 164 164 163 164 166 168
320 320 321 322 322 322 320 322 322 323 325 326 328 328 330 328 325 325 322 322 315 308 296 284 284 286 290 298 301 306 299 278 284 298 273 299 358 338 13 219 209 208 197 188 191 184 187 193 198 217 212 225 230 224 244 250 235 224 259 259 262 261 255 262 261 260 263 265 275 277 275 262 333 337 174 191 175 173 177 171 165 161 161 161 161 164 167 170
320 319 319 319 317 318 317 317 318 318 319 321 322 322 323 324 325 323 323 321 312 310 301 290 286 284 288 293 300 306 293 286 310 284 236 191 216 314 335 307 243 222 205 192 192 184 190 198 205 216 211 234 235 234 244 252 247 227 245 256 263 266 264 265 261 256 256 263 275 268 257 247 237 317 56 135 152 165 169 163 159 157 158 160 162 167 170 173
322 320 319 318 316 316 314 314 314 312 313 314 316 316 316 319 322 322 321 319 314 309 304 299 290 285 286 287 299 309 292 285 87 181 167 147 272 289 296 293 279 250 215 198 193 187 193 202 210 211 210 243 243 251 251 244 252 230 237 251 259 266 267 267 264 257 255 258 262 254 251 259 213 124 128 147 154 159 159 158 157 156 158 162 166 171 173 174
323 321 320 319 317 316 314 313 310 309 310 309 310 309 311 313 316 319 316 317 316 310 308 304 294 286 284 284 290 300 277 232 150 185 167 187 263 275 273 272 275 261 220 201 193 191 198 198 205 213 241 254 243 255 257 232 255 262 260 262 263 267 271 271 267 261 259 249 239 224 244 260 210 146 204 161 161 158 154 154 157 157 159 165 169 174 176 175
325 322 322 320 318 318 314 313 310 308 308 305 305 305 306 308 312 313 311 312 308 307 309 303 300 288 282 277 252 248 245 204 203 185 181 229 266 285 275 265 271 260 229 205 193 193 199 194 201 226 267 265 249 258 259 251 267 279 279 277 275 275 280 279 273 264 263 234 222 209 206 254 219 191 195 171 167 162 159 156 160 162 161 165 167 174 178 175
327 324 323 321 320 319 316 315 311 309 307 304 304 302 303 303 305 306 304 305 299 299 300 300 302 287 286 273 254 253 235 226 229 201 227 255 257 281 285 270 269 260 242 207 195 193 200 207 221 242 257 270 278 270 276 289 299 303 297 281 282 289 285 273 270 267 264 220 215 207 216 281 246 243 195 169 168 167 164 160 165 167 164 164 164 168 171 171
328 326 325 322 320 319 316 315 312 310 307 304 303 300 300 299 299 300 298 298 294 294 294 297 297 289 287 270 264 275 277 269 258 243 252 249 240 251 252 255 260 253 251 215 200 196 209 231 245 255 265 265 264 282 295 305 315 315 308 269 284 307 295 258 251 260 258 207 202 191 233 278 251 254 217 171 169 169 162 164 168 166 165 165 159 158 163 171
327 327 326 324 321 319 316 315 313 310 307 306 304 301 299 296 294 293 294 295 293 294 294 295 296 292 279 270 282 295 280 271 250 241 236 220 219 224 227 239 248 237 232 217 207 208 228 260 265 266 270 255 247 290 307 310 319 312 309 308 281 279 279 274 265 259 272 224 196 174 201 252 251 256 237 184 173 170 165 170 168 165 167 160 151 155 158 158
324 324 325 324 321 318 315 314 312 310 308 307 304 301 298 294 291 289 292 293 292 293 293 294 292 290 283 280 293 292 249 238 230 227 213 205 210 211 217 226 232 226 218 220 220 230 257 277 272 268 273 259 251 302 333 322 325 316 291 305 296 236 275 290 276 235 247 253 193 167 208 250 252 248 238 197 174 174 171 169 168 169 162 147 148 150 141 133
320 321 323 323 321 317 313 312 311 309 308 307 305 302 297 293 290 289 292 290 290 291 284 281 277 285 292 287 302 292 228 229 228 216 205 209 209 208 218 227 228 228 233 242 248 261 269 270 270 268 274 274 242 159 347 327 323 334 186 247 273 266 292 301 287 237 214 242 212 181 197 244 262 245 239 202 174 178 171 167 175 168 150 145 150 139 129 131
318 319 320 321 319 315 313 312 309 308 309 308 306 301 295 291 290 291 291 288 287 281 259 247 260 284 276 268 286 294 245 236 234 214 207 218 216 210 216 232 233 233 241 250 254 260 263 258 258 264 266 254 169 120 171 269 264 294 298 240 262 253 265 284 297 287 221 225 245 228 208 232 252 241 238 203 173 178 170 171 176 153 139 146 143 132 132 138
318 319 320 319 317 315 313 311 309 310 310 310 311 309 301 294 294 292 288 285 277 258 234 221 193 304 273 260 263 277 289 270 255 229 213 216 217 211 218 231 234 233 235 238 241 244 251 255 232 258 284 237 174 130 187 231 210 231 254 250 279 276 269 263 275 296 264 250 248 247 240 241 253 243 242 213 174 175 178 175 162 137 140 144 136 132 138 141
319 319 319 318 316 314 312 313 313 312 312 313 316 313 306 304 304 297 285 261 203 176 255 217 193 220 275 276 267 268 289 301 294 257 221 212 212 212 221 231 234 230 221 209 230 226 219 254 264 237 255 232 218 186 205 219 173 224 251 230 256 276 274 261 259 265 245 262 254 243 233 236 247 239 246 230 175 173 175 158 138 135 142 141 135 136 138 142
319 320 319 317 315 311 312 315 314 315 315 316 323 322 319 325 324 309 287 251 235 258 279 257 241 247 263 273 271 275 286 294 290 249 219 212 209 211 220 226 230 225 203 157 211 216 187 202 243 226 222 220 230 227 218 224 224 251 279 266 263 267 272 269 268 273 227 220 249 238 231 237 240 235 244 230 172 167 161 136 136 144 143 140 141 142 144 149
319 318 319 318 314 309 312 315 313 315 316 317 327 327 326 343 345 327 317 290 279 278 273 269 263 256 262 267 265 275 290 295 287 241 212 210 208 208 217 217 212 214 208 185 189 208 179 203 239 225 215 216 225 227 220 232 239 245 258 268 276 265 269 271 264 267 220 198 255 235 223 240 236 232 240 219 166 161 157 144 148 151 141 140 143 144 147 149
319 318 319 318 313 310 309 310 310 310 311 310 311 312 331 348 340 319 317 299 289 287 276 272 266 258 263 264 259 266 276 279 282 256 216 203 204 202 202 197 184 207 217 178 166 262 213 232 242 227 214 213 230 231 213 224 236 241 245 266 277 266 282 282 261 252 206 178 264 239 210 235 234 227 241 231 196 174 165 159 157 151 141 142 145 145 147 147
319 319 320 318 316 312 306 305 304 303 303 297 295 321 354 0 355 330 307 285 288 288 276 263 255 252 256 255 254 254 251 248 260 260 225 195 196 196 187 181 185 201 205 172 178 198 236 248 236 223 209 202 236 244 220 231 242 237 238 249 261 255 277 285 279 287 286 243 245 223 205 232 240 234 273 31 67 102 151 155 153 149 145 147 150 149 150 151
320 322 322 322 321 316 310 302 299 301 297 287 289 336 357 4 7 349 310 266 288 283 272 263 252 251 251 249 247 236 227 230 238 250 227 193 189 192 194 189 181 196 206 193 186 189 236 249 223 181 199 202 228 247 230 228 250 243 228 225 237 230 216 247 283 319 322 303 250 154 174 246 265 235 306 52 77 89 122 131 130 139 142 147 152 154 157 158
321 323 324 325 324 322 317 301 294 299 287 282 299 324 340 1 4 347 322 287 293 277 276 266 241 248 253 245 236 218 214 227 230 238 223 197 189 185 195 198 184 209 214 197 191 200 243 253 219 163 208 207 215 243 227 194 230 261 231 217 210 198 223 257 300 347 356 328 313 108 126 243 289 199 99 74 81 87 111 118 123 135 142 152 158 161 163 161
321 322 325 327 326 327 324 305 302 301 287 285 302 307 310 343 1 340 318 38 306 262 255 226 212 237 241 215 210 201 202 235 230 235 223 203 197 185 186 194 179 213 209 192 195 208 246 250 209 189 212 211 213 240 229 180 196 256 233 209 189 174 242 279 309 351 10 284 276 100 120 201 319 36 102 114 96 99 118 124 134 143 151 161 163 164 165 164
321 321 325 327 328 330 329 329 325 315 309 295 287 292 294 315 8 348 301 26 300 241 164 188 196 208 204 192 185 174 178 236 220 230 216 200 197 189 186 188 176 210 199 163 203 225 234 242 228 205 206 210 216 239 225 176 176 244 233 201 188 201 263 274 295 295 235 260 302 10 97 121 354 29 120 112 95 105 133 139 148 155 161 165 164 167 166 167
320 320 323 327 330 328 326 333 338 332 334 301 281 284 300 318 6 18 109 31 279 231 124 191 198 223 204 178 173 173 189 167 174 222 206 192 192 187 186 193 187 211 200 160 214 250 219 221 231 213 201 203 214 232 220 174 184 240 224 198 203 226 243 256 270 274 272 289 306 321 41 85 310 285 108 98 99 124 153 156 160 164 166 165 167 170 170 172
319 320 322 324 327 322 318 328 339 336 317 304 286 278 306 328 351 52 94 0 296 320 340 187 186 205 172 160 176 192 206 166 157 205 192 187 193 192 199 212 201 216 216 170 209 258 244 233 237 211 191 203 218 229 208 171 204 236 211 199 204 203 231 255 243 250 339 340 260 279 26 89 274 294 71 85 113 147 166 170 171 172 168 167 170 172 173 174
318 320 321 319 322 317 313 323 332 306 298 305 303 275 300 24 73 60 85 246 292 301 286 153 195 194 157 149 187 208 214 214 169 165 174 183 193 195 203 215 210 208 242 220 229 255 263 260 257 224 203 205 205 218 189 181 203 193 150 212 276 284 266 274 247 143 91 256 251 244 163 118 289 295 140 140 165 160 159 169 186 182 172 172 174 172 173 174
317 320 319 313 314 309 308 323 326 259 287 330 351 1 145 64 70 93 213 273 300 276 341 26 308 273 160 163 186 202 212 226 151 136 160 180 187 194 196 209 212 159 307 293 269 276 280 268 264 227 220 203 179 214 200 190 191 139 122 142 286 313 14 30 336 62 118 244 259 233 157 121 166 261 257 276 194 166 164 171 183 183 176 176 175 172 173 174
319 318 312 303 306 308 309 314 235 221 251 344 16 91 128 59 39 187 245 323 333 251 20 359 310 322 235 200 185 184 195 216 169 139 156 157 169 200 197 187 188 191 276 273 269 296 293 260 254 236 226 185 147 227 288 348 56 132 125 96 124 285 2 9 301 168 174 241 253 231 140 117 224 244 289 315 185 176 175 171 175 174 169 171 173 173 174 175
325 314 303 299 305 311 307 275 216 207 217 247 341 63 97 85 227 226 242 284 323 349 351 333 321 330 290 251 230 186 189 204 191 162 167 161 169 201 217 213 173 149 218 223 228 276 292 289 287 272 249 166 136 157 251 317 66 153 164 142 164 202 109 282 270 267 229 237 261 264 137 129 279 266 316 328 193 183 173 160 165 164 162 168 172 173 175 177
329 310 300 304 328 342 324 249 205 195 209 223 334 62 97 135 235 235 238 252 288 324 332 334 328 323 279 227 206 138 185 220 186 157 163 153 169 200 227 234 196 146 160 215 221 198 225 289 274 221 240 180 153 173 183 176 163 198 195 148 159 165 148 207 221 182 229 246 295 310 122 144 210 248 316 334 165 167 155 153 159 155 157 165 168 172 177 179
329 312 309 310 56 23 8 229 193 188 195 189 92 70 145 200 255 239 246 271 305 324 327 333 327 315 298 254 176 112 115 255 2 49 174 165 176 194 201 219 213 173 136 178 250 184 183 246 252 231 216 180 185 204 172 139 161 247 173 104 175 189 150 147 184 165 162 227 334 340 47 124 203 263 332 4 108 123 115 131 138 142 154 161 164 172 178 180
337 328 333 167 157 29 41 91 156 172 170 147 97 85 207 211 235 220 280 322 341 339 332 333 334 321 322 316 227 183 169 154 20 1 293 189 180 191 198 201 202 189 163 173 220 202 174 248 275 281 256 208 203 201 162 151 180 264 128 159 218 179 127 125 207 47 76 85 289 351 87 6 322 350 351 10 81 96 95 108 119 138 154 159 162 168 175 179
359 5 38 157 169 108 86 87 109 142 138 110 105 210 225 223 239 257 319 327 325 330 335 335 333 320 320 335 328 310 275 128 109 37 321 275 204 318 287 0 80 105 245 205 209 233 188 250 285 290 294 264 221 202 189 168 155 127 185 215 207 70 82 113 136 26 51 157 275 353 117 145 70 13 340 350 50 87 76 92 113 134 148 155 159 164 172 176
11 32 64 108 152 152 122 89 101 121 107 82 84 244 232 250 285 306 312 315 316 317 321 300 272 283 320 324 335 342 308 258 193 173 168 349 292 319 309 308 83 90 291 234 186 258 192 237 289 269 251 277 241 172 296 280 178 150 178 192 110 96 303 62 116 120 111 176 282 335 33 124 110 0 333 325 287 274 70 98 115 126 139 150 159 166 172 173
358 30 71 80 115 146 139 110 110 109 84 75 253 269 251 264 286 293 294 297 298 296 290 259 242 287 319 294 304 343 225 220 212 191 168 103 238 281 291 261 80 50 4 45 140 273 68 167 285 286 255 314 29 50 308 301 323 23 55 11 40 138 164 163 148 147 145 164 208 302 351 107 104 318 307 281 274 312 4 91 111 112 118 140 162 170 171 173
345 29 92 100 111 134 143 139 130 109 81 127 204 239 273 284 288 291 297 300 290 280 269 260 269 294 293 281 301 316 250 180 135 170 240 81 233 274 257 237 149 39 20 37 90 283 20 109 244 292 323 28 31 310 148 168 341 58 62 23 351 42 115 131 167 124 130 148 166 173 188 252 303 322 299 270 71 29 2 350 27 75 76 81 101 114 113 110
12 57 131 175 159 144 151 154 151 114 107 217 221 234 271 281 286 296 306 310 296 274 261 256 253 246 265 315 357 332 334 84 117 118 111 107 143 265 255 224 146 86 25 26 36 25 36 118 198 296 0 49 231 205 120 102 94 104 117 138 167 139 113 116 239 292 96 128 157 164 166 281 331 332 317 43 88 73 41 9 4 57 69 68 68 79 107 92
65 68 140 170 193 186 167 166 226 137 155 258 274 280 290 290 292 299 309 313 304 281 269 261 247 242 256 333 347 347 350 267 172 121 137 193 181 194 220 207 150 117 118 82 315 237 146 100 104 266 295 117 270 222 107 102 92 80 64 83 107 111 110 124 189 228 63 81 109 112 113 66 334 336 3 57 70 76 71 55 27 57 78 85 82 82 103 136
24 85 131 143 172 165 148 132 345 350 223 289 301 301 307 304 295 300 307 314 312 299 297 302 331 330 352 355 335 353 353 334 135 110 279 244 217 208 202 179 137 110 113 149 279 263 121 76 63 315 297 302 293 315 65 77 81 72 9 348 39 76 129 140 175 170 126 132 126 83 90 200 316 342 34 66 65 60 65 69 60 65 84 91 90 86 85 93
5 116 144 159 183 67 80 109 313 292 279 313 329 317 320 314 297 304 308 307 311 314 309 305 335 2 345 331 336 3 359 15 90 62 304 220 248 255 214 176 148 117 139 174 196 213 130 82 82 66 359 347 308 294 357 25 56 86 320 320 355 19 65 93 143 90 98 191 152 121 154 219 242 17 35 60 66 51 42 57 82 88 91 93 93 94 96 105
39 106 131 114 109 64 56 126 199 225 293 336 346 323 323 319 310 316 304 283 317 345 320 304 359 37 12 351 11 20 10 30 93 5 340 0 11 353 356 142 138 86 103 142 142 116 123 183 109 108 144 178 190 225 239 278 77 86 344 350 13 24 39 71 123 82 102 210 101 109 165 165 109 74 56 53 72 69 39 36 70 82 88 92 91 90 92 103
73 85 89 93 84 65 57 66 106 130 201 26 13 322 320 317 313 326 334 318 344 356 349 338 15 37 20 10 36 29 8 352 31 46 11 6 3 6 37 58 60 52 53 52 56 84 107 83 77 113 154 180 196 230 241 213 100 96 50 20 21 17 36 72 97 90 161 151 60 89 157 131 117 99 87 78 87 96 76 46 59 72 77 80 83 87 88 92
82 74 89 92 42 37 38 27 54 85 199 124 81 313 318 322 314 338 2 354 353 358 3 9 21 37 22 11 49 34 355 347 22 41 6 352 327 1 47 59 56 54 57 39 31 79 100 44 28 81 101 337 327 311 309 43 84 110 110 59 37 29 49 70 77 263 153 113 69 198 146 122 122 118 109 108 104 101 84 63 64 74 80 82 84 87 88 89
67 58 78 102 172 260 43 4 16 48 35 94 101 326 336 340 338 353 345 327 4 15 24 12 13 35 35 28 76 41 354 354 15 5 346 357 343 348 32 44 35 48 66 45 25 75 108 54 7 43 34 5 2 358 14 74 75 74 93 91 77 70 74 88 106 281 113 119 153 155 125 106 106 99 89 82 76 77 77 77 79 81 85 88 87 85 82 83
67 62 66 89 158 195 143 44 26 53 42 51 51 355 355 352 346 343 333 333 12 15 25 29 0 14 33 42 80 69 23 25 359 332 339 359 342 336 24 16 7 32 50 54 28 50 91 54 21 67 55 25 18 357 343 92 89 63 55 57 72 83 83 85 88 78 77 85 111 116 100 80 65 74 79 74 73 81 82 79 78 78 82 84 84 80 76 76
67 53 7 36 34 180 163 113 51 70 30 16 56 327 342 1 344 329 344 7 14 358 15 31 359 354 30 43 57 82 76 73 298 278 286 358 349 354 37 355 277 13 25 68 32 18 51 89 293 84 74 28 20 2 345 97 95 70 40 19 28 71 78 73 82 86 80 80 95 100 95 80 46 72 92 82 73 74 72 68 67 71 79 82 80 78 74 73
88 67 24 40 18 329 198 215 73 90 16 358 93 235 349 16 332 320 341 349 3 9 1 11 6 352 10 25 25 358 328 324 279 271 270 271 274 265 261 258 150 68 24 71 67 26 65 97 345 63 81 345 358 2 323 102 83 61 29 2 351 24 80 75 63 78 103 122 119 107 102 113 128 97 90 80 74 69 60 60 66 71 78 80 78 76 75 74
102 91 71 103 67 359 0 205 58 64 5 296 227 248 177 208 268 288 358 330 345 6 1 6 27 12 3 12 351 319 315 315 304 294 289 279 270 261 250 257 241 169 130 75 75 89 137 119 86 81 95 329 333 346 287 276 61 44 355 336 322 321 94 81 45 40 72 120 129 126 122 135 141 116 90 78 78 76 69 70 73 72 76 80 79 77 76 76